Time,TemperatureF,DewpointF,PressureIn,WindDirection,WindDirectionDegrees,WindSpeedMPH,WindSpeedGustMPH,Humidity,HourlyPrecipIn,Conditions,Clouds,dailyrainin,SoftwareType,DateUTC
2013-05-24 00:00:00,80.0,73.0,30.03,West,260,5.0,6.0,80,-99.99,,,-99.99,,2013-05-24 05:00:00,
2013-05-24 00:22:00,80.0,73.0,30.03,West,260,5.0,6.0,80,-99.99,,,-99.99,,2013-05-24 05:22:00,
2013-05-24 00:32:00,80.0,73.0,30.03,West,260,5.0,6.0,80,-99.99,,,-99.99,,2013-05-24 05:32:00,
2013-05-24 00:42:00,80.0,73.0,30.03,West,260,5.0,6.0,80,-99.99,,,-99.99,,2013-05-24 05:42:00,
2013-05-24 00:52:00,80.0,73.0,30.03,West,260,5.0,6.0,80,-99.99,,,-99.99,,2013-05-24 05:52:00,
2013-05-24 01:00:00,80.0,74.0,30.02,West,260,7.0,10.0,82,-99.99,,,-99.99,,2013-05-24 06:00:00,
2013-05-24 01:21:00,80.0,74.0,30.02,West,260,7.0,10.0,82,-99.99,,,-99.99,,2013-05-24 06:21:00,
2013-05-24 01:32:00,80.0,74.0,30.02,West,260,7.0,10.0,82,-99.99,,,-99.99,,2013-05-24 06:32:00,
2013-05-24 01:41:00,80.0,74.0,30.02,West,260,7.0,10.0,82,-99.99,,,-99.99,,2013-05-24 06:41:00,
2013-05-24 01:52:00,80.0,74.0,30.02,West,260,7.0,10.0,82,-99.99,,,-99.99,,2013-05-24 06:52:00,
2013-05-24 02:00:00,80.0,74.0,30.02,West,270,6.0,8.0,84,-99.99,,,-99.99,,2013-05-24 07:00:00,
2013-05-24 02:21:00,80.0,74.0,30.02,West,270,6.0,8.0,84,-99.99,,,-99.99,,2013-05-24 07:21:00,
2013-05-24 02:31:00,80.0,74.0,30.02,West,270,6.0,8.0,84,-99.99,,,-99.99,,2013-05-24 07:31:00,
2013-05-24 02:41:00,80.0,74.0,30.02,West,270,6.0,8.0,84,-99.99,,,-99.99,,2013-05-24 07:41:00,
2013-05-24 02:52:00,80.0,74.0,30.02,West,270,6.0,8.0,84,-99.99,,,-99.99,,2013-05-24 07:52:00,
2013-05-24 03:00:00,80.0,76.0,30.02,West,270,5.0,8.0,86,-99.99,,,-99.99,,2013-05-24 08:00:00,
2013-05-24 03:22:00,80.0,76.0,30.02,West,270,5.0,8.0,86,-99.99,,,-99.99,,2013-05-24 08:22:00,
2013-05-24 03:32:00,80.0,76.0,30.02,West,270,5.0,8.0,86,-99.99,,,-99.99,,2013-05-24 08:32:00,
2013-05-24 03:41:00,80.0,76.0,30.02,West,270,5.0,8.0,86,-99.99,,,-99.99,,2013-05-24 08:41:00,
2013-05-24 03:51:00,80.0,76.0,30.02,West,270,5.0,8.0,86,-99.99,,,-99.99,,2013-05-24 08:51:00,
2013-05-24 04:00:00,79.0,76.0,30.02,WNW,300,8.0,9.0,89,-99.99,,,-99.99,,2013-05-24 09:00:00,
2013-05-24 04:21:00,79.0,76.0,30.02,WNW,300,8.0,9.0,89,-99.99,,,-99.99,,2013-05-24 09:21:00,
2013-05-24 04:32:00,79.0,76.0,30.02,WNW,300,8.0,9.0,89,-99.99,,,-99.99,,2013-05-24 09:32:00,
2013-05-24 04:42:00,79.0,76.0,30.02,WNW,300,8.0,9.0,89,-99.99,,,-99.99,,2013-05-24 09:42:00,
2013-05-24 04:52:00,79.0,76.0,30.02,WNW,300,8.0,9.0,89,-99.99,,,-99.99,,2013-05-24 09:52:00,
2013-05-24 05:00:00,78.0,76.0,30.04,WNW,300,7.0,8.0,90,-99.99,,,-99.99,,2013-05-24 10:00:00,
2013-05-24 05:22:00,78.0,76.0,30.04,WNW,300,7.0,8.0,90,-99.99,,,-99.99,,2013-05-24 10:22:00,
2013-05-24 05:32:00,78.0,76.0,30.04,WNW,300,7.0,8.0,90,-99.99,,,-99.99,,2013-05-24 10:32:00,
2013-05-24 05:41:00,78.0,76.0,30.04,WNW,300,7.0,8.0,90,-99.99,,,-99.99,,2013-05-24 10:41:00,
2013-05-24 05:52:00,78.0,76.0,30.04,WNW,300,7.0,8.0,90,-99.99,,,-99.99,,2013-05-24 10:52:00,
2013-05-24 06:00:00,78.0,75.0,30.04,WNW,290,8.0,8.0,90,-99.99,,,-99.99,,2013-05-24 11:00:00,
2013-05-24 06:22:00,78.0,75.0,30.04,WNW,290,8.0,8.0,90,-99.99,,,-99.99,,2013-05-24 11:22:00,
2013-05-24 06:32:00,78.0,75.0,30.04,WNW,290,8.0,8.0,90,-99.99,,,-99.99,,2013-05-24 11:32:00,
2013-05-24 06:41:00,78.0,75.0,30.04,WNW,290,8.0,8.0,90,-99.99,,,-99.99,,2013-05-24 11:41:00,
2013-05-24 06:51:00,78.0,75.0,30.04,WNW,290,8.0,8.0,90,-99.99,,,-99.99,,2013-05-24 11:51:00,
2013-05-24 07:00:00,77.0,74.0,30.07,NNW,330,10.0,10.0,89,-99.99,,,-99.99,,2013-05-24 12:00:00,
2013-05-24 07:21:00,77.0,74.0,30.07,NNW,330,10.0,10.0,89,-99.99,,,-99.99,,2013-05-24 12:21:00,
2013-05-24 07:32:00,77.0,74.0,30.07,NNW,330,10.0,10.0,89,-99.99,,,-99.99,,2013-05-24 12:32:00,
2013-05-24 07:42:00,77.0,74.0,30.07,NNW,330,10.0,10.0,89,-99.99,,,-99.99,,2013-05-24 12:42:00,
2013-05-24 07:51:00,77.0,74.0,30.07,NNW,330,10.0,10.0,89,-99.99,,,-99.99,,2013-05-24 12:51:00,
2013-05-24 08:00:00,78.0,71.0,30.09,North,10,13.0,14.0,79,-99.99,,,-99.99,,2013-05-24 13:00:00,
2013-05-24 08:21:00,78.0,71.0,30.09,North,10,13.0,14.0,79,-99.99,,,-99.99,,2013-05-24 13:21:00,
2013-05-24 08:31:00,78.0,71.0,30.09,North,10,13.0,14.0,79,-99.99,,,-99.99,,2013-05-24 13:31:00,
2013-05-24 08:41:00,78.0,71.0,30.09,North,10,13.0,14.0,79,-99.99,,,-99.99,,2013-05-24 13:41:00,
2013-05-24 08:52:00,78.0,71.0,30.09,North,10,13.0,14.0,79,-99.99,,,-99.99,,2013-05-24 13:52:00,
2013-05-24 09:00:00,78.0,67.0,30.11,NNE,20,14.0,15.0,67,-99.99,,,-99.99,,2013-05-24 14:00:00,
2013-05-24 09:21:00,78.0,67.0,30.11,NNE,20,14.0,15.0,67,-99.99,,,-99.99,,2013-05-24 14:21:00,
2013-05-24 09:31:00,78.0,67.0,30.11,NNE,20,14.0,15.0,67,-99.99,,,-99.99,,2013-05-24 14:31:00,
2013-05-24 09:41:00,78.0,67.0,30.11,NNE,20,14.0,15.0,67,-99.99,,,-99.99,,2013-05-24 14:41:00,
2013-05-24 09:51:00,78.0,67.0,30.11,NNE,20,14.0,15.0,67,-99.99,,,-99.99,,2013-05-24 14:51:00,
2013-05-24 10:00:00,77.0,69.0,30.12,North,10,16.0,17.0,75,-99.99,,,-99.99,,2013-05-24 15:00:00,
2013-05-24 10:21:00,77.0,69.0,30.12,North,10,16.0,17.0,75,-99.99,,,-99.99,,2013-05-24 15:21:00,
2013-05-24 10:32:00,77.0,69.0,30.12,North,10,16.0,17.0,75,-99.99,,,-99.99,,2013-05-24 15:32:00,
2013-05-24 10:42:00,77.0,69.0,30.12,North,10,16.0,17.0,75,-99.99,,,-99.99,,2013-05-24 15:42:00,
2013-05-24 10:52:00,77.0,69.0,30.12,North,10,16.0,17.0,75,-99.99,,,-99.99,,2013-05-24 15:52:00,
2013-05-24 11:00:00,79.0,67.0,30.13,North,10,15.0,15.0,66,-99.99,,,-99.99,,2013-05-24 16:00:00,
2013-05-24 11:22:00,79.0,67.0,30.13,North,10,15.0,15.0,66,-99.99,,,-99.99,,2013-05-24 16:22:00,
2013-05-24 11:32:00,79.0,67.0,30.13,North,10,15.0,15.0,66,-99.99,,,-99.99,,2013-05-24 16:32:00,
2013-05-24 11:41:00,79.0,67.0,30.13,North,10,15.0,15.0,66,-99.99,,,-99.99,,2013-05-24 16:41:00,
2013-05-24 11:52:00,79.0,67.0,30.13,North,10,15.0,15.0,66,-99.99,,,-99.99,,2013-05-24 16:52:00,
2013-05-24 12:00:00,79.0,66.0,30.14,NNE,30,16.0,17.0,64,-99.99,,,-99.99,,2013-05-24 17:00:00,
2013-05-24 12:22:00,79.0,66.0,30.14,NNE,30,16.0,17.0,64,-99.99,,,-99.99,,2013-05-24 17:22:00,
2013-05-24 12:32:00,79.0,66.0,30.14,NNE,30,16.0,17.0,64,-99.99,,,-99.99,,2013-05-24 17:32:00,
2013-05-24 12:41:00,79.0,66.0,30.14,NNE,30,16.0,17.0,64,-99.99,,,-99.99,,2013-05-24 17:41:00,
2013-05-24 12:51:00,79.0,66.0,30.14,NNE,30,16.0,17.0,64,-99.99,,,-99.99,,2013-05-24 17:51:00,
2013-05-24 13:00:00,80.0,67.0,30.13,North,360,14.0,15.0,65,-99.99,,,-99.99,,2013-05-24 18:00:00,
2013-05-24 13:21:00,80.0,67.0,30.13,North,360,14.0,15.0,65,-99.99,,,-99.99,,2013-05-24 18:21:00,
2013-05-24 13:31:00,80.0,67.0,30.13,North,360,14.0,15.0,65,-99.99,,,-99.99,,2013-05-24 18:31:00,
2013-05-24 13:41:00,80.0,67.0,30.13,North,360,14.0,15.0,65,-99.99,,,-99.99,,2013-05-24 18:41:00,
2013-05-24 13:51:00,80.0,67.0,30.13,North,360,14.0,15.0,65,-99.99,,,-99.99,,2013-05-24 18:51:00,
2013-05-24 14:00:00,81.0,65.0,30.12,North,10,14.0,15.0,57,-99.99,,,-99.99,,2013-05-24 19:00:00,
2013-05-24 14:21:00,81.0,65.0,30.12,North,10,14.0,15.0,57,-99.99,,,-99.99,,2013-05-24 19:21:00,
2013-05-24 14:31:00,81.0,65.0,30.12,North,10,14.0,15.0,57,-99.99,,,-99.99,,2013-05-24 19:31:00,
2013-05-24 14:41:00,81.0,65.0,30.12,North,10,14.0,15.0,57,-99.99,,,-99.99,,2013-05-24 19:41:00,
2013-05-24 14:52:00,81.0,65.0,30.12,North,10,14.0,15.0,57,-99.99,,,-99.99,,2013-05-24 19:52:00,
2013-05-24 15:00:00,81.0,68.0,30.11,NNE,20,14.0,15.0,64,-99.99,,,-99.99,,2013-05-24 20:00:00,
2013-05-24 15:21:00,81.0,68.0,30.11,NNE,20,14.0,15.0,64,-99.99,,,-99.99,,2013-05-24 20:21:00,
2013-05-24 15:31:00,81.0,68.0,30.11,NNE,20,14.0,15.0,64,-99.99,,,-99.99,,2013-05-24 20:31:00,
2013-05-24 15:41:00,81.0,68.0,30.11,NNE,20,14.0,15.0,64,-99.99,,,-99.99,,2013-05-24 20:41:00,
2013-05-24 15:51:00,81.0,68.0,30.11,NNE,20,14.0,15.0,64,-99.99,,,-99.99,,2013-05-24 20:51:00,
2013-05-24 16:00:00,82.0,70.0,30.11,NNE,30,11.0,13.0,67,-99.99,,,-99.99,,2013-05-24 21:00:00,
2013-05-24 16:21:00,82.0,70.0,30.11,NNE,30,11.0,13.0,67,-99.99,,,-99.99,,2013-05-24 21:21:00,
2013-05-24 16:32:00,82.0,70.0,30.11,NNE,30,11.0,13.0,67,-99.99,,,-99.99,,2013-05-24 21:32:00,
2013-05-24 16:42:00,82.0,70.0,30.11,NNE,30,11.0,13.0,67,-99.99,,,-99.99,,2013-05-24 21:42:00,
2013-05-24 16:52:00,82.0,70.0,30.11,NNE,30,11.0,13.0,67,-99.99,,,-99.99,,2013-05-24 21:52:00,
2013-05-24 17:00:00,83.0,66.0,30.09,NNE,20,14.0,15.0,57,-99.99,,,-99.99,,2013-05-24 22:00:00,
2013-05-24 17:22:00,83.0,66.0,30.09,NNE,20,14.0,15.0,57,-99.99,,,-99.99,,2013-05-24 22:22:00,
2013-05-24 17:32:00,83.0,66.0,30.09,NNE,20,14.0,15.0,57,-99.99,,,-99.99,,2013-05-24 22:32:00,
2013-05-24 17:42:00,83.0,66.0,30.09,NNE,20,14.0,15.0,57,-99.99,,,-99.99,,2013-05-24 22:42:00,
2013-05-24 17:52:00,83.0,66.0,30.09,NNE,20,14.0,15.0,57,-99.99,,,-99.99,,2013-05-24 22:52:00,
2013-05-24 18:00:00,83.0,67.0,30.07,NNE,30,13.0,15.0,59,-99.99,,,-99.99,,2013-05-24 23:00:00,
2013-05-24 18:21:00,83.0,67.0,30.07,NNE,30,13.0,15.0,59,-99.99,,,-99.99,,2013-05-24 23:21:00,
2013-05-24 18:32:00,83.0,67.0,30.07,NNE,30,13.0,15.0,59,-99.99,,,-99.99,,2013-05-24 23:32:00,
2013-05-24 18:41:00,83.0,67.0,30.07,NNE,30,13.0,15.0,59,-99.99,,,-99.99,,2013-05-24 23:41:00,
2013-05-24 18:52:00,83.0,67.0,30.07,NNE,30,13.0,15.0,59,-99.99,,,-99.99,,2013-05-24 23:52:00,
2013-05-24 19:00:00,83.0,65.0,30.08,North,10,20.0,23.0,55,-99.99,,,-99.99,,2013-05-25 00:00:00,
2013-05-24 19:21:00,83.0,65.0,30.08,North,10,20.0,23.0,55,-99.99,,,-99.99,,2013-05-25 00:21:00,
2013-05-24 19:32:00,83.0,65.0,30.08,North,10,20.0,23.0,55,-99.99,,,-99.99,,2013-05-25 00:32:00,
2013-05-24 19:41:00,83.0,65.0,30.08,North,10,20.0,23.0,55,-99.99,,,-99.99,,2013-05-25 00:41:00,
2013-05-24 19:51:00,83.0,65.0,30.08,North,10,20.0,23.0,55,-99.99,,,-99.99,,2013-05-25 00:51:00,
2013-05-24 20:00:00,82.0,65.0,30.09,NNE,20,21.0,23.0,54,-99.99,,,-99.99,,2013-05-25 01:00:00,
2013-05-24 20:21:00,82.0,65.0,30.09,NNE,20,21.0,23.0,54,-99.99,,,-99.99,,2013-05-25 01:21:00,
2013-05-24 20:32:00,82.0,65.0,30.09,NNE,20,21.0,23.0,54,-99.99,,,-99.99,,2013-05-25 01:32:00,
2013-05-24 20:41:00,82.0,65.0,30.09,NNE,20,21.0,23.0,54,-99.99,,,-99.99,,2013-05-25 01:41:00,
2013-05-24 20:52:00,82.0,65.0,30.09,NNE,20,21.0,23.0,54,-99.99,,,-99.99,,2013-05-25 01:52:00,
2013-05-24 21:00:00,82.0,62.0,30.13,North,10,22.0,24.0,50,-99.99,,,-99.99,,2013-05-25 02:00:00,
2013-05-24 21:21:00,82.0,62.0,30.13,North,10,22.0,24.0,50,-99.99,,,-99.99,,2013-05-25 02:21:00,
2013-05-24 21:31:00,82.0,62.0,30.13,North,10,22.0,24.0,50,-99.99,,,-99.99,,2013-05-25 02:31:00,
2013-05-24 21:41:00,82.0,62.0,30.13,North,10,22.0,24.0,50,-99.99,,,-99.99,,2013-05-25 02:41:00,
2013-05-24 21:51:00,82.0,62.0,30.13,North,10,22.0,24.0,50,-99.99,,,-99.99,,2013-05-25 02:51:00,
2013-05-24 22:00:00,81.0,63.0,30.14,NNE,20,18.0,20.0,56,-99.99,,,-99.99,,2013-05-25 03:00:00,
2013-05-24 22:21:00,81.0,63.0,30.14,NNE,20,18.0,20.0,56,-99.99,,,-99.99,,2013-05-25 03:21:00,
2013-05-24 22:32:00,81.0,63.0,30.14,NNE,20,18.0,20.0,56,-99.99,,,-99.99,,2013-05-25 03:32:00,
2013-05-24 22:43:00,81.0,63.0,30.14,NNE,20,18.0,20.0,56,-99.99,,,-99.99,,2013-05-25 03:43:00,
2013-05-24 22:53:00,81.0,63.0,30.14,NNE,20,18.0,20.0,56,-99.99,,,-99.99,,2013-05-25 03:53:00,
2013-05-24 23:00:00,80.0,59.0,30.15,NNE,30,18.0,21.0,49,-99.99,,,-99.99,,2013-05-25 04:00:00,
2013-05-24 23:23:00,80.0,59.0,30.15,NNE,30,18.0,21.0,49,-99.99,,,-99.99,,2013-05-25 04:23:00,
2013-05-24 23:32:00,80.0,59.0,30.15,NNE,30,18.0,21.0,49,-99.99,,,-99.99,,2013-05-25 04:32:00,
2013-05-24 23:43:00,80.0,59.0,30.15,NNE,30,18.0,21.0,49,-99.99,,,-99.99,,2013-05-25 04:43:00,
2013-05-24 23:52:00,80.0,59.0,30.15,NNE,30,18.0,21.0,49,-99.99,,,-99.99,,2013-05-25 04:52:00,